Theta_e
312 311 317 316 314 316 317 318 317 321 324 322 337 341 343 338 346 348 343 346 345 349 351 350 349 346 338 336 333 329 325 330 339 342 343 344 342 340 339 337 333 342 344 342 340 337 336 334 330
311 322 316 310 311 316 311 315 319 318 318 315 317 318 319 322 338 340 342 343 346 349 351 349 349 346 339 336 334 329 324 324 330 338 341 342 342 339 336 333 337 342 342 340 337 337 336 335 334
315 324 309 312 310 311 312 316 315 314 313 314 315 316 316 337 346 344 346 343 353 353 352 348 350 346 339 336 333 329 324 323 326 332 336 338 337 333 334 329 337 339 342 338 337 337 335 330 328
319 317 315 312 313 312 313 315 312 313 314 314 314 315 316 333 349 347 349 344 351 354 351 347 350 347 339 336 334 330 325 323 325 328 330 330 330 333 330 331 336 339 341 339 336 338 330 324 324
316 313 316 321 321 315 312 313 314 315 314 314 312 315 315 354 346 354 350 347 350 354 352 347 350 347 339 336 334 330 326 324 324 326 328 330 331 329 330 334 337 338 336 335 338 327 325 325 325
315 310 315 317 318 317 316 315 316 315 314 313 312 314 321 331 324 353 355 355 352 354 354 349 351 347 339 336 335 330 328 325 325 328 329 329 328 329 332 336 337 336 336 338 329 328 330 329 328
315 312 314 314 316 319 317 314 315 315 312 314 311 315 313 318 346 354 354 355 356 356 354 357 356 347 340 337 336 331 329 327 327 329 328 328 330 332 334 336 338 338 339 334 329 331 329 329 328
310 312 317 318 319 319 317 311 314 313 313 311 312 314 312 324 351 351 351 353 356 355 355 357 357 349 340 337 337 332 329 328 328 329 328 328 333 337 340 340 339 337 334 332 331 330 330 329 329
306 308 310 314 315 315 310 310 312 313 312 311 312 314 313 334 351 346 347 351 354 356 357 356 356 353 345 339 339 334 331 329 329 331 331 332 336 339 340 337 336 334 333 331 331 330 330 330 327
306 306 309 309 311 311 308 308 309 311 311 310 311 311 313 325 338 341 336 332 342 352 352 352 353 353 348 346 345 339 335 332 331 331 334 334 335 338 341 336 335 333 332 332 332 331 331 328 329
305 307 307 307 308 309 309 308 309 310 310 309 310 310 310 322 332 335 334 334 329 339 352 352 351 352 350 349 348 347 340 335 333 332 334 335 336 339 339 337 335 334 334 335 332 332 333 334 337
311 309 310 310 310 309 309 308 309 308 309 309 309 310 310 311 321 327 331 332 333 334 343 351 350 349 349 349 349 348 342 338 336 336 335 334 335 338 337 334 334 334 336 338 336 332 334 338 339
309 310 310 310 308 307 307 308 309 309 308 308 308 309 309 309 316 322 324 329 330 336 338 349 350 348 347 349 348 346 341 338 336 336 334 332 333 334 333 332 333 336 339 338 337 338 338 340 340
310 310 310 309 309 307 309 309 309 309 309 308 308 308 307 308 310 319 323 328 328 328 340 341 349 349 349 348 348 346 342 338 336 335 333 332 332 331 331 330 334 340 341 341 339 340 340 344 342
311 312 309 309 310 310 308 311 310 309 308 308 308 307 307 307 309 312 316 320 335 338 335 340 348 350 347 349 347 345 341 338 336 336 334 331 332 328 329 339 341 342 343 343 341 344 345 344 342
311 309 311 310 309 312 311 312 310 312 310 311 309 308 308 308 308 310 311 313 317 323 332 339 338 350 349 349 347 345 341 337 337 335 334 331 330 336 334 338 339 342 341 339 343 344 344 342 342
308 311 312 311 310 314 313 315 314 314 312 309 308 307 308 308 308 309 311 312 313 321 330 334 337 349 349 347 347 344 342 338 337 334 331 329 335 339 340 342 342 340 339 341 344 343 343 341 339
310 310 310 311 311 314 315 315 314 313 312 311 308 307 307 308 308 310 311 312 313 331 333 340 344 347 348 348 346 344 343 340 337 333 331 327 334 337 343 341 340 342 344 344 344 343 339 337 334
310 310 311 311 312 314 314 316 315 314 312 309 309 308 307 307 308 310 311 313 313 342 340 338 343 343 346 346 343 342 341 339 336 334 336 330 334 340 342 342 343 344 343 343 341 339 336 333 333
309 311 311 311 312 313 315 316 315 314 313 312 312 311 308 308 308 309 310 312 315 340 342 341 340 341 343 344 342 340 339 338 335 338 340 338 336 343 342 342 344 343 342 341 340 338 333 327 330
312 312 313 314 314 313 315 316 314 313 311 311 310 309 308 308 309 309 308 311 320 344 344 344 342 341 343 343 341 342 340 340 341 343 343 342 343 343 343 345 345 340 339 336 335 335 334 327 321
315 313 313 314 315 317 314 319 314 313 313 311 312 311 310 309 308 308 308 309 313 342 345 344 343 342 342 342 343 344 343 344 344 345 344 343 344 346 347 344 340 338 337 334 333 332 331 330 324
314 315 316 316 315 314 316 316 314 313 313 311 311 310 310 309 307 308 309 309 313 317 342 345 344 341 340 342 344 345 345 345 345 345 344 346 347 346 342 341 338 337 334 330 329 325 320 317 317
315 315 313 312 312 320 317 316 316 313 312 311 310 309 309 309 308 308 310 310 310 313 338 344 344 341 342 341 345 346 346 344 344 343 343 345 343 339 339 339 334 332 328 326 320 318 317 317 316
311 312 309 312 319 320 312 316 317 313 311 310 310 308 308 309 308 307 308 308 309 311 314 343 344 340 342 343 344 346 346 345 343 340 341 339 336 335 335 335 333 327 324 321 318 317 316 315 315
312 312 311 316 318 314 315 317 313 311 312 311 310 309 310 311 309 309 309 308 308 310 312 340 342 340 341 344 345 346 345 343 341 344 343 341 341 338 336 337 331 325 321 319 317 315 314 314 312
313 317 313 311 313 319 315 313 313 313 314 313 313 315 314 313 313 312 311 307 308 309 312 332 342 341 341 342 344 343 344 343 342 336 337 339 337 338 336 331 322 320 319 317 315 314 311 308 306
313 313 311 321 322 320 315 316 317 314 316 317 315 313 312 312 312 313 313 309 308 309 313 324 339 341 341 342 343 342 343 340 339 337 335 334 335 336 331 325 321 319 317 316 315 311 309 308 305
312 314 317 318 318 320 319 315 311 313 313 316 314 313 312 312 312 313 313 313 313 309 314 326 336 343 338 340 342 342 339 337 335 336 335 335 336 333 326 320 319 318 316 315 313 311 310 307 303
311 312 315 318 319 320 316 316 312 314 315 315 314 314 312 312 313 314 314 314 315 316 311 327 340 345 337 338 340 341 340 339 336 333 333 334 329 325 321 319 318 316 316 314 313 311 308 305 302
Wind_Speed
6 2 2 5 3 4 3 5 2 2 2 1 2 4 6 4 6 6 1 30 26 43 41 37 37 35 32 29 26 24 24 25 26 27 27 26 26 25 24 23 23 23 19 16 13 12 11 10 9
4 3 4 2 5 2 4 4 3 3 5 9 4 2 4 8 6 12 6 22 26 41 42 41 40 36 34 30 27 25 25 26 27 27 27 27 26 25 24 23 23 22 17 14 12 11 10 9 7
3 3 4 4 4 5 5 3 5 5 7 7 7 4 5 4 3 4 4 19 29 38 42 39 38 36 34 31 29 27 25 25 26 27 27 26 26 26 24 23 22 20 16 14 11 10 8 7 7
2 5 4 4 6 6 5 2 1 5 6 5 4 8 7 7 12 10 4 23 30 37 40 39 38 37 35 32 29 28 27 26 26 27 28 28 26 25 24 23 21 18 16 13 10 8 7 6 6
5 3 4 3 4 6 1 2 1 2 4 5 7 7 5 8 30 17 6 24 32 30 35 37 37 36 34 33 31 29 28 28 27 28 27 27 26 25 24 22 19 17 14 11 9 6 5 4 4
4 3 3 3 4 5 3 2 2 2 4 7 9 7 4 12 33 15 1 14 25 28 31 34 35 34 33 31 30 30 28 27 28 27 27 26 26 25 23 20 17 14 12 9 6 5 3 1 1
6 4 4 5 3 2 1 6 4 3 4 4 7 7 6 19 31 4 4 5 17 22 30 23 27 33 32 31 29 29 29 27 26 27 26 26 25 23 21 18 15 13 10 8 5 3 2 2 3
5 4 3 2 2 3 3 7 3 5 4 8 6 5 8 10 24 12 8 7 6 20 20 20 22 29 31 31 29 28 28 28 26 26 26 25 23 21 19 17 14 11 8 6 4 2 3 3 4
3 4 1 1 2 3 8 6 3 4 7 4 5 4 5 12 12 19 13 10 3 5 12 15 18 25 28 29 27 26 26 26 26 26 25 25 24 21 18 15 12 10 7 5 3 3 2 4 5
4 4 7 5 2 2 6 3 7 2 5 4 6 7 12 8 9 11 13 13 9 2 10 9 11 20 25 24 23 23 23 24 25 26 26 25 23 20 17 14 11 9 6 4 4 3 2 2 4
1 4 3 1 3 1 4 6 2 3 1 6 7 7 10 2 4 3 5 3 8 5 4 11 11 15 16 18 20 19 23 23 23 24 24 24 22 19 17 13 11 9 7 5 3 3 2 2 4
1 1 3 6 2 4 4 5 7 6 6 7 9 6 5 7 4 5 7 11 1 1 2 9 13 15 13 14 22 24 24 24 24 23 23 23 21 20 17 15 12 9 7 5 3 2 1 3 4
2 1 4 7 9 6 6 7 7 5 11 9 9 8 9 8 5 6 7 11 12 11 3 6 14 17 17 17 19 23 29 27 25 23 22 20 20 21 18 15 12 9 6 4 1 1 1 2 3
3 3 7 6 8 4 3 5 2 6 7 8 8 11 8 8 8 6 9 11 15 10 11 2 16 20 15 20 19 25 30 29 27 25 23 21 20 19 18 14 11 8 5 3 3 4 4 2 5
3 5 7 3 1 5 2 4 5 8 5 10 9 9 8 9 11 11 16 14 18 19 16 15 14 23 26 25 27 30 32 29 26 25 22 21 19 18 15 12 9 5 6 6 4 3 4 6 6
5 3 3 5 5 3 4 8 9 12 5 10 9 8 6 6 7 15 17 18 15 18 21 26 19 26 27 29 30 31 30 28 26 23 22 21 18 15 14 11 8 5 6 6 8 7 7 5 3
5 5 5 6 5 3 3 8 11 15 9 9 10 8 5 7 8 14 16 18 20 20 18 23 18 29 35 35 36 33 29 27 25 23 22 21 19 13 9 11 7 7 9 10 11 10 5 3 1
7 5 6 10 6 4 7 15 13 12 7 12 9 8 6 8 12 12 17 14 20 18 19 27 29 30 36 35 32 30 28 27 25 23 21 21 19 12 7 8 8 9 11 11 9 7 6 1 3
6 6 11 12 12 5 13 17 13 14 10 11 10 8 7 9 8 13 12 13 15 15 26 31 35 36 41 36 30 29 30 28 25 22 19 20 19 12 12 12 11 11 9 9 8 7 5 7 3
7 7 8 9 12 6 11 18 15 13 10 15 15 12 8 5 5 8 14 13 14 22 27 33 39 35 30 35 34 28 28 29 27 22 20 20 19 15 15 14 13 9 7 5 5 5 6 10 10
5 6 8 15 15 6 8 20 9 9 8 11 13 10 8 10 9 8 8 13 11 18 23 31 34 36 36 33 31 24 25 20 21 22 21 21 20 19 18 15 12 9 6 3 3 5 5 8 14
10 9 12 12 8 6 4 12 5 8 15 11 14 10 10 9 7 8 8 9 15 21 23 25 29 33 33 34 30 31 26 21 21 26 25 26 22 22 20 14 11 9 7 5 6 6 7 8 8
6 6 7 12 11 5 6 4 5 2 5 10 9 12 12 6 8 10 9 16 21 19 23 25 29 30 33 32 31 32 24 23 24 25 27 27 25 24 18 15 12 11 9 10 9 9 11 14 14
3 5 10 3 2 7 11 10 4 5 7 6 6 8 7 4 7 8 11 15 20 23 17 26 27 32 33 37 33 30 29 28 29 29 30 28 26 20 20 16 10 12 13 12 11 13 15 16 15
8 5 4 5 0 5 5 7 14 13 9 9 10 9 6 2 5 7 7 7 15 20 20 24 27 26 34 34 33 33 34 34 37 34 33 30 23 20 19 17 15 12 13 13 12 13 16 15 14
7 6 4 5 3 4 3 7 5 9 11 8 7 7 5 4 1 6 7 7 14 21 22 21 27 24 33 35 33 36 35 34 35 39 36 27 23 12 14 10 13 14 15 14 15 18 18 15 15
3 4 3 2 4 6 4 6 8 11 9 6 6 1 3 5 4 7 6 9 15 22 24 25 24 28 34 34 35 34 36 36 36 37 35 34 28 28 21 23 22 21 19 18 18 19 19 17 14
6 5 2 2 4 5 5 5 6 7 4 4 6 7 7 4 5 6 6 7 17 26 28 30 27 31 36 38 35 37 37 35 38 34 31 30 28 30 30 29 27 25 21 19 20 21 18 15 13
2 3 3 3 3 3 5 5 6 7 7 5 6 8 8 8 5 5 7 10 7 20 24 28 29 25 31 38 35 34 36 31 38 31 32 34 34 34 32 30 28 25 24 21 20 20 16 15 14
5 4 5 3 3 4 4 10 7 5 5 4 8 9 11 7 6 4 6 8 14 11 27 25 26 28 35 36 35 34 35 32 35 34 35 37 36 33 34 30 28 26 25 20 18 18 15 15 15
Wind_Direction
345 0 41 41 69 64 246 249 299 339 11 337 183 141 202 175 179 225 74 178 181 167 166 173 164 165 168 162 157 154 154 156 157 158 158 160 160 163 163 163 162 160 162 162 160 160 160 162 163
13 101 61 78 104 126 265 252 164 348 293 301 259 311 276 256 234 290 74 171 180 167 169 171 166 169 169 164 159 157 156 158 161 162 161 165 164 167 166 166 164 163 162 164 163 162 164 167 167
98 62 88 101 120 186 204 219 72 309 309 340 323 346 272 251 257 268 153 171 167 164 170 170 168 171 170 165 161 158 158 160 161 164 165 168 167 167 168 167 167 166 167 172 171 168 167 168 171
102 23 37 103 205 250 186 144 60 333 319 321 316 292 303 332 336 312 272 169 172 169 172 171 171 174 171 167 164 162 162 162 164 164 165 165 167 169 169 169 170 172 173 178 181 178 179 169 170
48 54 74 112 252 272 216 295 340 329 284 302 327 295 276 11 354 348 184 169 173 170 174 175 175 176 174 170 168 166 166 165 166 166 167 167 169 170 171 172 176 177 177 180 183 182 179 170 170
46 93 84 211 246 282 309 203 239 78 307 304 347 296 276 9 344 337 164 162 175 175 175 178 178 179 176 174 172 170 169 169 168 169 169 171 171 171 171 174 179 181 178 180 186 181 194 212 254
114 92 183 168 211 305 233 342 15 343 314 341 300 297 290 348 338 293 97 163 162 172 173 171 178 181 179 179 178 175 172 172 172 171 172 174 174 172 174 175 178 180 184 184 183 202 236 288 302
107 92 134 222 165 238 287 2 244 22 289 307 349 330 322 344 35 44 74 100 158 163 166 170 177 182 182 181 182 180 178 177 176 176 176 176 177 176 175 174 178 182 187 189 191 226 275 296 305
121 61 110 242 130 261 302 9 283 273 271 324 262 280 296 344 39 30 36 41 43 150 169 176 178 183 182 182 183 185 185 184 179 181 181 179 181 182 181 179 181 184 189 194 219 248 287 311 309
83 106 212 213 245 304 306 291 287 263 287 266 287 298 326 18 40 65 31 13 20 204 190 200 195 189 182 185 179 186 187 188 188 186 185 186 185 187 189 185 186 190 193 213 238 256 270 315 336
115 174 195 294 276 35 264 306 304 269 300 251 270 293 315 14 71 109 125 27 354 351 219 210 206 190 184 177 174 181 190 193 194 194 193 193 189 190 193 196 195 202 209 225 243 269 312 7 12
102 2 81 298 285 323 286 293 304 231 249 248 278 268 286 323 312 143 185 189 165 344 351 225 215 207 199 191 183 181 190 197 198 200 200 198 195 194 198 200 204 212 231 241 243 268 342 4 342
117 289 293 272 287 243 254 242 240 245 264 286 278 295 285 293 280 243 220 200 177 193 163 213 214 211 208 198 192 185 190 198 201 203 205 204 203 201 199 202 205 208 223 235 225 264 277 326 296
244 272 283 281 277 261 255 270 186 254 254 276 273 273 278 273 274 257 236 236 200 184 186 121 204 207 205 203 206 197 195 201 203 206 205 205 207 205 204 200 207 220 226 226 253 259 259 256 176
294 324 331 294 292 292 210 307 226 250 278 271 264 252 269 260 257 248 249 244 219 213 217 202 191 207 208 214 215 206 205 204 205 205 205 203 205 204 204 195 217 234 232 223 228 184 163 133 145
356 69 5 274 311 270 66 274 278 294 313 291 282 253 257 264 248 262 265 261 228 205 204 196 188 205 209 217 223 221 208 205 207 203 206 201 194 196 201 211 228 248 194 191 189 180 157 141 146
356 258 281 302 227 269 187 267 284 294 296 285 287 283 272 293 278 265 273 265 254 244 212 194 203 203 214 218 223 222 216 206 207 204 204 202 193 198 224 221 221 222 212 194 180 159 156 155 200
277 282 270 278 284 212 262 263 275 277 280 277 271 280 255 264 262 264 274 274 259 248 216 200 194 201 212 212 218 220 212 212 208 203 203 196 193 196 197 189 201 194 184 174 172 162 149 127 30
274 283 269 275 277 283 276 280 280 280 283 276 276 257 247 240 264 254 258 274 258 225 201 194 194 196 197 196 200 210 208 210 205 201 198 190 188 187 180 175 177 178 176 169 168 149 123 53 72
245 254 267 268 267 236 272 273 278 274 254 258 265 264 241 201 240 255 255 266 238 230 200 194 203 205 193 190 195 204 199 207 204 193 193 186 182 176 171 172 167 168 172 182 205 189 135 63 57
245 240 272 275 291 257 280 281 240 248 237 242 249 241 232 215 221 234 239 257 251 219 216 197 200 206 207 199 191 204 191 190 190 185 180 177 171 165 162 164 157 164 151 143 140 144 149 122 59
291 269 282 278 293 280 125 296 234 240 251 252 257 258 241 224 202 232 219 242 250 220 209 215 194 192 188 193 189 191 173 164 178 179 171 164 167 159 158 160 163 142 117 127 127 111 107 116 105
241 303 275 273 262 286 217 257 278 274 244 252 257 247 252 227 195 227 221 230 239 245 216 203 200 197 189 193 195 188 161 169 165 166 158 153 162 156 149 148 151 123 111 125 108 98 97 84 83
314 346 313 5 155 254 222 200 301 230 234 265 257 267 254 210 207 232 240 245 244 255 220 206 196 195 187 193 199 188 162 148 141 149 149 151 149 147 139 126 114 121 141 115 110 105 86 79 81
7 34 327 328 241 240 327 213 252 291 272 247 259 272 278 165 200 225 234 229 232 246 238 195 197 188 191 192 193 191 174 159 149 145 145 148 144 137 121 121 120 138 120 116 119 98 89 86 88
278 172 177 265 251 269 318 251 249 245 281 279 259 268 316 350 302 252 250 245 236 236 241 205 186 181 189 195 185 187 179 160 161 161 154 151 141 131 138 121 162 150 143 134 122 95 91 93 90
198 195 224 261 242 272 235 289 300 266 307 271 244 295 342 328 298 268 280 244 237 233 227 221 191 179 182 179 171 170 175 170 162 162 162 155 150 155 157 162 158 151 140 136 111 103 100 99 93
180 169 36 212 275 259 273 260 240 285 270 344 352 312 291 254 259 289 292 268 233 231 221 220 206 181 177 177 171 168 169 161 161 161 158 166 164 161 157 157 154 145 136 124 111 111 109 101 86
153 223 171 219 220 262 295 254 217 250 254 236 301 297 296 308 297 274 292 310 297 240 234 215 202 172 176 176 171 164 162 158 160 156 164 169 165 160 154 155 146 137 129 118 117 114 109 94 76
175 217 165 223 223 233 236 263 256 241 255 262 287 289 291 280 290 270 255 281 297 269 237 216 197 173 178 173 172 164 161 162 157 158 163 163 154 154 153 149 138 130 122 123 126 118 104 84 66